| time (UTC) | temp F | wind direction | speed MPH | gust MPH | rain 1hr in | rain 24hr in | rain mn in | humidity % | barometer mb |
| 20260502152052 | 52 | 206 | 1.0 | 3.0 | 0.00 | 0.04 | 0.04 | 78 | 1013.6 |
| 20260502151552 | 52 | 165 | 0.0 | 3.0 | 0.00 | 0.04 | 0.04 | 77 | 1013.7 |
| 20260502151052 | 52 | 0 | 0.0 | 2.0 | 0.00 | 0.04 | 0.04 | 78 | 1013.7 |
| 20260502150551 | 52 | 155 | 1.0 | 2.0 | 0.00 | 0.04 | 0.04 | 77 | 1013.8 |
| 20260502150113 | 52 | 0 | 0.0 | 3.0 | 0.00 | 0.04 | 0.04 | 77 | 1013.7 |
| 20260502130552 | 50 | 248 | 1.0 | 2.0 | 0.01 | 0.04 | 0.04 | 82 | 1013.6 |
| 20260502123551 | 48 | 233 | 0.0 | 1.0 | 0.02 | 0.04 | 0.04 | 90 | 1013.7 |
| 20260502123051 | 47 | 0 | 0.0 | 2.0 | 0.02 | 0.04 | 0.04 | 90 | 1013.6 |
| 20260502122551 | 47 | 0 | 0.0 | 2.0 | 0.02 | 0.04 | 0.04 | 90 | 1014.0 |
| 20260502122051 | 47 | 245 | 1.0 | 3.0 | 0.02 | 0.04 | 0.04 | 91 | 1014.1 |
| 20260502121552 | 47 | 248 | 1.0 | 3.0 | 0.02 | 0.04 | 0.04 | 91 | 1014.2 |
| 20260502121052 | 46 | 250 | 2.0 | 3.0 | 0.02 | 0.04 | 0.04 | 91 | 1014.2 |
| 20260502120612 | 46 | 238 | 1.0 | 3.0 | 0.01 | 0.03 | 0.03 | 91 | 1014.2 |
| 20260502115613 | 46 | 224 | 1.0 | 1.0 | 0.01 | 0.03 | 0.03 | 91 | 1014.4 |
| 20260502115052 | 46 | 224 | 0.0 | 1.0 | 0.01 | 0.03 | 0.03 | 91 | 1014.3 |
| 20260502114552 | 46 | 0 | 0.0 | 2.0 | 0.01 | 0.03 | 0.03 | 91 | 1014.3 |
| 20260502114113 | 46 | 0 | 0.0 | 2.0 | 0.00 | 0.02 | 0.02 | 91 | 1014.3 |
| 20260502113552 | 46 | 182 | 0.0 | 1.0 | 0.00 | 0.02 | 0.02 | 91 | 1014.2 |
| 20260502113051 | 46 | 0 | 0.0 | 1.0 | 0.00 | 0.02 | 0.02 | 91 | 1014.2 |
| 20260502112551 | 46 | 0 | 0.0 | 1.0 | 0.00 | 0.02 | 0.02 | 91 | 1014.5 |
| 20260502112112 | 46 | 0 | 0.0 | 1.0 | 0.00 | 0.02 | 0.02 | 91 | 1014.6 |
| 20260502111552 | 46 | 182 | 0.0 | 1.0 | 0.00 | 0.02 | 0.02 | 91 | 1014.2 |
| 20260502111052 | 46 | 182 | 0.0 | 1.0 | 0.00 | 0.02 | 0.02 | 91 | 1014.2 |
| 20260502110551 | 46 | 0 | 0.0 | 1.0 | 0.01 | 0.02 | 0.02 | 91 | 1014.4 |
| 20260502110051 | 46 | 0 | 0.0 | 1.0 | 0.01 | 0.02 | 0.02 | 91 | 1014.3 |
| 20260502105551 | 46 | 0 | 0.0 | 1.0 | 0.01 | 0.02 | 0.02 | 91 | 1014.4 |
| 20260502105112 | 46 | 186 | 0.0 | 1.0 | 0.01 | 0.02 | 0.02 | 90 | 1014.1 |
| 20260502104552 | 46 | 0 | 0.0 | 0.0 | 0.02 | 0.02 | 0.02 | 90 | 1013.8 |
| 20260502104051 | 46 | 0 | 0.0 | 0.0 | 0.02 | 0.02 | 0.02 | 90 | 1013.7 |
| 20260502103552 | 46 | 0 | 0.0 | 0.0 | 0.02 | 0.02 | 0.02 | 90 | 1013.5 |
| 20260502103113 | 46 | 0 | 0.0 | 1.0 | 0.02 | 0.02 | 0.02 | 90 | 1013.5 |
| 20260502102552 | 46 | 0 | 0.0 | 1.0 | 0.02 | 0.02 | 0.02 | 90 | 1013.6 |
| 20260502102051 | 46 | 0 | 0.0 | 1.0 | 0.02 | 0.02 | 0.02 | 89 | 1013.5 |
| 20260502101552 | 46 | 0 | 0.0 | 1.0 | 0.02 | 0.02 | 0.02 | 89 | 1013.4 |
| 20260502101052 | 46 | 0 | 0.0 | 1.0 | 0.02 | 0.02 | 0.02 | 89 | 1013.6 |
| 20260502100552 | 46 | 0 | 0.0 | 1.0 | 0.01 | 0.01 | 0.01 | 89 | 1013.6 |
| 20260502091051 | 47 | 0 | 0.0 | 1.0 | 0.00 | 0.00 | 0.00 | 86 | 1013.3 |
| 20260502090551 | 47 | 0 | 0.0 | 1.0 | 0.00 | 0.00 | 0.00 | 85 | 1013.2 |
| 20260502071051 | 48 | 0 | 0.0 | 1.0 | 0.00 | 0.00 | 0.00 | 78 | 1013.3 |
| 20260502070613 | 48 | 0 | 0.0 | 1.0 | 0.00 | 0.00 | 0.00 | 78 | 1013.5 |
| 20260502070052 | 48 | 0 | 0.0 | 1.0 | 0.00 | 0.00 | 0.00 | 78 | 1013.5 |
| 20260502065551 | 48 | 0 | 0.0 | 1.0 | 0.00 | 0.00 | 0.00 | 78 | 1013.6 |
| 20260502065052 | 48 | 0 | 0.0 | 1.0 | 0.00 | 0.00 | 0.00 | 77 | 1013.5 |
| 20260502064552 | 48 | 0 | 0.0 | 1.0 | 0.00 | 0.00 | 0.00 | 78 | 1013.4 |
| 20260502064051 | 49 | 0 | 0.0 | 1.0 | 0.00 | 0.00 | 0.00 | 76 | 1013.5 |
| 20260502063551 | 49 | 0 | 0.0 | 0.0 | 0.00 | 0.00 | 0.00 | 76 | 1013.5 |
| 20260502063051 | 49 | 0 | 0.0 | 0.0 | 0.00 | 0.00 | 0.00 | 75 | 1013.5 |
| 20260502062612 | 49 | 0 | 0.0 | 0.0 | 0.00 | 0.00 | 0.00 | 75 | 1013.5 |
| 20260502062051 | 49 | 0 | 0.0 | 1.0 | 0.00 | 0.00 | 0.00 | 74 | 1013.6 |
| 20260502061051 | 49 | 252 | 0.0 | 2.0 | 0.00 | 0.00 | 0.00 | 74 | 1013.7 |
| 20260502060552 | 49 | 252 | 1.0 | 2.0 | 0.00 | 0.00 | 0.00 | 74 | 1013.6 |
| 20260502060051 | 49 | 0 | 0.0 | 2.0 | 0.00 | 0.00 | 0.00 | 73 | 1013.6 |
| 20260502055552 | 49 | 254 | 2.0 | 2.0 | 0.00 | 0.00 | 0.00 | 73 | 1013.5 |
| 20260502055051 | 49 | 0 | 0.0 | 2.0 | 0.00 | 0.00 | 0.00 | 74 | 1013.6 |
| 20260502054552 | 50 | 262 | 1.0 | 1.0 | 0.00 | 0.00 | 0.00 | 73 | 1013.5 |
| 20260502054051 | 50 | 0 | 0.0 | 1.0 | 0.00 | 0.00 | 0.00 | 73 | 1013.5 |
| 20260502053552 | 50 | 200 | 1.0 | 2.0 | 0.00 | 0.00 | 0.00 | 72 | 1013.5 |
| 20260502053112 | 50 | 200 | 1.0 | 2.0 | 0.00 | 0.00 | 0.00 | 71 | 1013.6 |
| 20260502052552 | 50 | 182 | 1.0 | 1.0 | 0.00 | 0.00 | 0.00 | 72 | 1013.7 |
| 20260502052052 | 50 | 0 | 0.0 | 1.0 | 0.00 | 0.00 | 0.00 | 72 | 1013.7 |
| 20260502051552 | 51 | 0 | 0.0 | 1.0 | 0.00 | 0.00 | 0.00 | 71 | 1013.7 |
| 20260502051052 | 51 | 0 | 0.0 | 1.0 | 0.00 | 0.00 | 0.00 | 71 | 1013.7 |
| 20260502050551 | 51 | 0 | 0.0 | 1.0 | 0.00 | 0.00 | 0.00 | 70 | 1013.8 |
| 20260502050052 | 51 | 0 | 0.0 | 1.0 | 0.00 | 0.00 | 0.00 | 69 | 1013.7 |
| 20260502045551 | 51 | 0 | 0.0 | 1.0 | 0.00 | 0.00 | 0.00 | 69 | 1013.8 |
| 20260502045052 | 51 | 0 | 0.0 | 3.0 | 0.00 | 0.00 | 0.00 | 70 | 1013.8 |
| 20260502044612 | 51 | 0 | 0.0 | 3.0 | 0.00 | 0.00 | 0.00 | 69 | 1013.8 |
| 20260502044051 | 51 | 139 | 1.0 | 2.0 | 0.00 | 0.00 | 0.00 | 70 | 1013.8 |
| 20260502043552 | 51 | 0 | 0.0 | 1.0 | 0.00 | 0.00 | 0.00 | 71 | 1013.7 |
| 20260502043051 | 51 | 0 | 0.0 | 1.0 | 0.00 | 0.00 | 0.00 | 70 | 1013.7 |
| 20260502042613 | 51 | 0 | 0.0 | 2.0 | 0.00 | 0.00 | 0.00 | 70 | 1013.6 |
| 20260502042052 | 51 | 160 | 0.0 | 2.0 | 0.00 | 0.00 | 0.00 | 71 | 1013.7 |
| 20260502041552 | 50 | 0 | 0.0 | 2.0 | 0.00 | 0.00 | 0.00 | 70 | 1013.7 |
| 20260502041052 | 50 | 0 | 0.0 | 2.0 | 0.00 | 0.00 | 0.00 | 70 | 1013.7 |
| 20260502040551 | 50 | 0 | 0.0 | 2.0 | 0.00 | 0.00 | 0.00 | 70 | 1013.6 |
| 20260502040051 | 50 | 185 | 0.0 | 1.0 | 0.00 | 0.00 | 0.00 | 71 | 1013.8 |
| 20260502035550 | 50 | 158 | 0.0 | 2.0 | 0.00 | 0.00 | 0.00 | 70 | 1013.8 |
| 20260502035050 | 50 | 0 | 0.0 | 2.0 | 0.00 | 0.00 | 0.00 | 70 | 1013.6 |
| 20260502034550 | 50 | 0 | 0.0 | 2.0 | 0.00 | 0.00 | 0.00 | 70 | 1013.8 |
| 20260502034050 | 50 | 233 | 0.0 | 2.0 | 0.00 | 0.00 | 0.00 | 71 | 1013.8 |
| 20260502033550 | 50 | 0 | 0.0 | 2.0 | 0.00 | 0.00 | 0.00 | 70 | 1013.9 |
| 20260502033050 | 50 | 0 | 0.0 | 2.0 | 0.00 | 0.00 | 0.00 | 71 | 1013.9 |
| 20260502032550 | 50 | 0 | 0.0 | 2.0 | 0.00 | 0.00 | 0.00 | 71 | 1013.8 |
| 20260502032049 | 50 | 207 | 0.0 | 2.0 | 0.00 | 0.00 | 0.00 | 70 | 1013.9 |
| 20260502031550 | 50 | 173 | 0.0 | 1.0 | 0.00 | 0.00 | 0.00 | 70 | 1013.9 |
| 20260502031050 | 50 | 0 | 0.0 | 5.0 | 0.00 | 0.00 | 0.00 | 70 | 1013.9 |
| 20260502030549 | 51 | 0 | 0.0 | 6.0 | 0.00 | 0.00 | 0.00 | 68 | 1013.9 |
| 20260502030050 | 51 | 0 | 0.0 | 6.0 | 0.00 | 0.00 | 0.00 | 67 | 1013.8 |
| 20260502025611 | 51 | 314 | 2.0 | 3.0 | 0.00 | 0.00 | 0.00 | 68 | 1013.8 |
| 20260502025050 | 51 | 134 | 0.0 | 3.0 | 0.00 | 0.00 | 0.00 | 66 | 1013.9 |
| 20260502024611 | 51 | 256 | 1.0 | 3.0 | 0.00 | 0.00 | 0.00 | 66 | 1013.9 |
| 20260502024050 | 52 | 344 | 0.0 | 3.0 | 0.00 | 0.00 | 0.00 | 66 | 1013.8 |
| 20260502023550 | 52 | 0 | 0.0 | 3.0 | 0.00 | 0.00 | 0.00 | 66 | 1013.8 |
| 20260502023050 | 52 | 338 | 1.0 | 3.0 | 0.00 | 0.00 | 0.00 | 64 | 1013.8 |
| 20260502022550 | 52 | 97 | 1.0 | 3.0 | 0.00 | 0.00 | 0.00 | 65 | 1013.8 |
| 20260502022050 | 52 | 0 | 0.0 | 3.0 | 0.00 | 0.00 | 0.00 | 65 | 1013.8 |
| 20260502021550 | 52 | 0 | 0.0 | 6.0 | 0.00 | 0.00 | 0.00 | 64 | 1013.8 |
| 20260502021050 | 52 | 0 | 0.0 | 6.0 | 0.00 | 0.00 | 0.00 | 63 | 1013.8 |
| 20260502020550 | 52 | 0 | 0.0 | 4.0 | 0.00 | 0.00 | 0.00 | 63 | 1013.9 |
| 20260502020050 | 52 | 127 | 1.0 | 5.0 | 0.00 | 0.00 | 0.00 | 62 | 1013.9 |
| 20260502015611 | 52 | 0 | 0.0 | 5.0 | 0.00 | 0.00 | 0.00 | 62 | 1014.0 |
| 20260502015050 | 52 | 0 | 0.0 | 2.0 | 0.00 | 0.00 | 0.00 | 62 | 1013.9 |
| 20260502014611 | 53 | 193 | 1.0 | 2.0 | 0.00 | 0.00 | 0.00 | 61 | 1013.9 |
| 20260502014050 | 53 | 173 | 1.0 | 3.0 | 0.00 | 0.00 | 0.00 | 61 | 1013.8 |
| 20260502013550 | 53 | 174 | 1.0 | 3.0 | 0.00 | 0.00 | 0.00 | 62 | 1013.8 |
| 20260502013050 | 53 | 162 | 0.0 | 4.0 | 0.00 | 0.00 | 0.00 | 59 | 1013.8 |
| 20260502012611 | 53 | 138 | 2.0 | 4.0 | 0.00 | 0.00 | 0.00 | 59 | 1013.7 |
| 20260502012050 | 53 | 97 | 1.0 | 3.0 | 0.00 | 0.00 | 0.00 | 58 | 1013.7 |
| 20260502011550 | 53 | 0 | 0.0 | 3.0 | 0.00 | 0.00 | 0.00 | 58 | 1013.6 |
| 20260502011050 | 53 | 0 | 0.0 | 2.0 | 0.00 | 0.00 | 0.00 | 58 | 1013.5 |
| 20260502010551 | 53 | 0 | 0.0 | 3.0 | 0.00 | 0.00 | 0.00 | 56 | 1013.5 |
| 20260502010050 | 53 | 0 | 0.0 | 3.0 | 0.00 | 0.00 | 0.00 | 54 | 1013.4 |
| 20260502005550 | 53 | 203 | 1.0 | 2.0 | 0.00 | 0.00 | 0.00 | 53 | 1013.3 |
| 20260502005050 | 53 | 214 | 0.0 | 3.0 | 0.00 | 0.00 | 0.00 | 50 | 1013.3 |
| 20260502004611 | 54 | 205 | 0.0 | 3.0 | 0.00 | 0.00 | 0.00 | 52 | 1013.2 |
| 20260502004111 | 54 | 259 | 0.0 | 3.0 | 0.00 | 0.00 | 0.00 | 51 | 1013.1 |
| 20260502003550 | 54 | 0 | 0.0 | 3.0 | 0.00 | 0.00 | 0.00 | 54 | 1013.1 |
| 20260502003050 | 54 | 0 | 0.0 | 3.0 | 0.00 | 0.00 | 0.00 | 52 | 1013.0 |
| 20260502002550 | 54 | 200 | 0.0 | 2.0 | 0.00 | 0.00 | 0.00 | 53 | 1013.1 |
| 20260502002050 | 54 | 0 | 0.0 | 1.0 | 0.00 | 0.00 | 0.00 | 54 | 1012.9 |
| 20260502001551 | 54 | 0 | 0.0 | 1.0 | 0.00 | 0.00 | 0.00 | 53 | 1012.9 |
| 20260502001050 | 54 | 0 | 0.0 | 2.0 | 0.00 | 0.00 | 0.00 | 52 | 1012.8 |
| 20260502000550 | 54 | 0 | 0.0 | 2.0 | 0.00 | 0.00 | 0.00 | 51 | 1012.7 |
| 20260502000050 | 54 | 114 | 1.0 | 2.0 | 0.00 | 0.00 | 0.00 | 48 | 1012.6 |
| 20260501235550 | 54 | 115 | 1.0 | 1.0 | 0.00 | 0.00 | 0.00 | 52 | 1012.4 |
| 20260501235050 | 54 | 115 | 1.0 | 1.0 | 0.00 | 0.00 | 0.00 | 50 | 1012.3 |
| 20260501234550 | 55 | 115 | 1.0 | 1.0 | 0.00 | 0.00 | 0.00 | 50 | 1012.2 |
| 20260501234050 | 56 | 115 | 0.0 | 1.0 | 0.00 | 0.00 | 0.00 | 49 | 1012.2 |
| 20260501233550 | 56 | 115 | 1.0 | 2.0 | 0.00 | 0.00 | 0.00 | 44 | 1012.2 |
| 20260501233050 | 57 | 115 | 1.0 | 2.0 | 0.00 | 0.00 | 0.00 | 43 | 1012.2 |
| 20260501232550 | 58 | 115 | 0.0 | 1.0 | 0.00 | 0.00 | 0.00 | 43 | 1012.1 |
| 20260501232050 | 58 | 115 | 1.0 | 2.0 | 0.00 | 0.00 | 0.00 | 39 | 1012.1 |
| 20260501231550 | 59 | 0 | 0.0 | 2.0 | 0.00 | 0.00 | 0.00 | 40 | 1012.0 |
| 20260501231050 | 59 | 115 | 1.0 | 2.0 | 0.00 | 0.00 | 0.00 | 39 | 1012.0 |
| 20260501230550 | 59 | 0 | 0.0 | 4.0 | 0.00 | 0.00 | 0.00 | 38 | 1012.0 |
| 20260501230050 | 60 | 0 | 0.0 | 4.0 | 0.00 | 0.00 | 0.00 | 36 | 1012.0 |
| 20260501225550 | 60 | 62 | 0.0 | 4.0 | 0.00 | 0.00 | 0.00 | 37 | 1012.0 |
| 20260501225111 | 60 | 129 | 1.0 | 5.0 | 0.00 | 0.00 | 0.00 | 37 | 1011.8 |
| 20260501224550 | 60 | 124 | 2.0 | 6.0 | 0.00 | 0.00 | 0.00 | 40 | 1011.7 |
| 20260501224050 | 60 | 153 | 1.0 | 6.0 | 0.00 | 0.00 | 0.00 | 36 | 1011.6 |
| 20260501223550 | 61 | 160 | 0.0 | 4.0 | 0.00 | 0.00 | 0.00 | 36 | 1011.7 |
| 20260501223050 | 60 | 0 | 0.0 | 4.0 | 0.00 | 0.00 | 0.00 | 36 | 1011.7 |
| 20260501222550 | 61 | 124 | 1.0 | 3.0 | 0.00 | 0.00 | 0.00 | 37 | 1011.8 |
| 20260501222050 | 61 | 138 | 1.0 | 4.0 | 0.00 | 0.00 | 0.00 | 37 | 1011.7 |
| 20260501221550 | 61 | 0 | 0.0 | 4.0 | 0.00 | 0.00 | 0.00 | 37 | 1011.7 |
| 20260501221050 | 61 | 0 | 0.0 | 5.0 | 0.00 | 0.00 | 0.00 | 36 | 1011.8 |
| 20260501220550 | 61 | 177 | 1.0 | 6.0 | 0.00 | 0.00 | 0.00 | 36 | 1011.8 |
| 20260501220050 | 61 | 120 | 2.0 | 6.0 | 0.00 | 0.00 | 0.00 | 35 | 1011.9 |
| 20260501215550 | 61 | 87 | 2.0 | 4.0 | 0.00 | 0.00 | 0.00 | 37 | 1012.0 |
| 20260501215050 | 61 | 110 | 2.0 | 5.0 | 0.00 | 0.00 | 0.00 | 36 | 1012.0 |
| 20260501214611 | 62 | 123 | 4.0 | 5.0 | 0.00 | 0.00 | 0.00 | 38 | 1012.0 |
| 20260501214050 | 62 | 137 | 0.0 | 6.0 | 0.00 | 0.00 | 0.00 | 36 | 1011.9 |
| 20260501213550 | 61 | 76 | 2.0 | 6.0 | 0.00 | 0.00 | 0.00 | 36 | 1011.9 |
| 20260501213050 | 61 | 136 | 1.0 | 6.0 | 0.00 | 0.00 | 0.00 | 38 | 1012.0 |
| 20260501212550 | 62 | 85 | 2.0 | 5.0 | 0.00 | 0.00 | 0.00 | 36 | 1011.8 |
| 20260501212050 | 62 | 80 | 1.0 | 5.0 | 0.00 | 0.00 | 0.00 | 39 | 1011.8 |
| 20260501211550 | 61 | 111 | 1.0 | 5.0 | 0.00 | 0.00 | 0.00 | 36 | 1011.8 |
| 20260501211111 | 62 | 174 | 2.0 | 5.0 | 0.00 | 0.00 | 0.00 | 37 | 1011.8 |
| 20260501210550 | 61 | 122 | 1.0 | 5.0 | 0.00 | 0.00 | 0.00 | 36 | 1011.7 |
| 20260501210050 | 61 | 149 | 0.0 | 5.0 | 0.00 | 0.00 | 0.00 | 36 | 1011.8 |
| 20260501205550 | 62 | 93 | 2.0 | 8.0 | 0.00 | 0.00 | 0.00 | 36 | 1011.9 |
| 20260501205051 | 61 | 146 | 2.0 | 8.0 | 0.00 | 0.00 | 0.00 | 37 | 1012.0 |
| 20260501204550 | 62 | 156 | 1.0 | 5.0 | 0.00 | 0.00 | 0.00 | 34 | 1011.9 |
| 20260501204050 | 62 | 82 | 3.0 | 5.0 | 0.00 | 0.00 | 0.00 | 35 | 1011.9 |
| 20260501203550 | 62 | 141 | 2.0 | 9.0 | 0.00 | 0.00 | 0.00 | 37 | 1012.0 |
| 20260501203050 | 62 | 116 | 3.0 | 9.0 | 0.00 | 0.00 | 0.00 | 35 | 1011.9 |
| 20260501202550 | 62 | 117 | 0.0 | 6.0 | 0.00 | 0.00 | 0.00 | 36 | 1011.8 |
| 20260501202111 | 62 | 153 | 1.0 | 6.0 | 0.00 | 0.00 | 0.00 | 37 | 1011.7 |
| 20260501201550 | 61 | 63 | 1.0 | 6.0 | 0.00 | 0.00 | 0.00 | 35 | 1011.6 |
| 20260501201050 | 62 | 77 | 1.0 | 5.0 | 0.00 | 0.00 | 0.00 | 36 | 1011.8 |
| 20260501200550 | 62 | 93 | 2.0 | 6.0 | 0.00 | 0.00 | 0.00 | 35 | 1011.8 |
| 20260501200050 | 62 | 143 | 1.0 | 6.0 | 0.00 | 0.00 | 0.00 | 36 | 1011.8 |
| 20260501195611 | 62 | 147 | 4.0 | 6.0 | 0.00 | 0.00 | 0.00 | 34 | 1011.6 |
| 20260501195050 | 62 | 189 | 3.0 | 6.0 | 0.00 | 0.00 | 0.00 | 35 | 1011.7 |
| 20260501194550 | 62 | 136 | 1.0 | 6.0 | 0.00 | 0.00 | 0.00 | 35 | 1011.8 |
| 20260501194111 | 62 | 129 | 2.0 | 6.0 | 0.00 | 0.00 | 0.00 | 36 | 1011.9 |
| 20260501193550 | 62 | 68 | 3.0 | 6.0 | 0.00 | 0.00 | 0.00 | 37 | 1011.8 |
| 20260501193111 | 62 | 118 | 2.0 | 8.0 | 0.00 | 0.00 | 0.00 | 36 | 1011.7 |
| 20260501192550 | 62 | 115 | 2.0 | 8.0 | 0.00 | 0.00 | 0.00 | 36 | 1011.9 |
| 20260501192050 | 62 | 156 | 1.0 | 6.0 | 0.00 | 0.00 | 0.00 | 40 | 1012.0 |
| 20260501191550 | 61 | 60 | 2.0 | 6.0 | 0.00 | 0.00 | 0.00 | 36 | 1012.0 |
| 20260501191050 | 61 | 170 | 3.0 | 5.0 | 0.00 | 0.00 | 0.00 | 34 | 1012.1 |
| 20260501190551 | 61 | 0 | 0.0 | 8.0 | 0.00 | 0.00 | 0.00 | 34 | 1012.2 |
| 20260501190050 | 61 | 137 | 1.0 | 8.0 | 0.00 | 0.00 | 0.00 | 38 | 1012.3 |
| 20260501185550 | 61 | 339 | 4.0 | 8.0 | 0.00 | 0.00 | 0.00 | 36 | 1012.3 |
| 20260501185050 | 60 | 177 | 4.0 | 8.0 | 0.00 | 0.00 | 0.00 | 37 | 1012.2 |
| 20260501184550 | 61 | 161 | 2.0 | 7.0 | 0.00 | 0.00 | 0.00 | 35 | 1012.3 |
| 20260501184050 | 61 | 124 | 3.0 | 7.0 | 0.00 | 0.00 | 0.00 | 38 | 1012.3 |
| 20260501183611 | 61 | 128 | 6.0 | 6.0 | 0.00 | 0.00 | 0.00 | 37 | 1012.2 |
| 20260501183050 | 60 | 143 | 2.0 | 4.0 | 0.00 | 0.00 | 0.00 | 36 | 1012.3 |
| 20260501182551 | 60 | 115 | 0.0 | 6.0 | 0.00 | 0.00 | 0.00 | 36 | 1012.4 |
| 20260501182112 | 60 | 150 | 2.0 | 6.0 | 0.00 | 0.00 | 0.00 | 39 | 1012.3 |
| 20260501181550 | 60 | 191 | 2.0 | 6.0 | 0.00 | 0.00 | 0.00 | 38 | 1012.5 |
| 20260501181051 | 60 | 165 | 0.0 | 6.0 | 0.00 | 0.00 | 0.00 | 34 | 1012.5 |
| 20260501180551 | 60 | 136 | 1.0 | 7.0 | 0.00 | 0.00 | 0.00 | 39 | 1012.5 |
| 20260501180051 | 59 | 164 | 1.0 | 7.0 | 0.00 | 0.00 | 0.00 | 38 | 1012.5 |
| 20260501175550 | 58 | 316 | 0.0 | 7.0 | 0.00 | 0.00 | 0.00 | 43 | 1012.4 |
| 20260501175051 | 58 | 131 | 1.0 | 6.0 | 0.00 | 0.00 | 0.00 | 40 | 1012.5 |
| 20260501174612 | 59 | 145 | 1.0 | 6.0 | 0.00 | 0.00 | 0.00 | 39 | 1012.5 |
| 20260501174050 | 58 | 119 | 3.0 | 4.0 | 0.00 | 0.00 | 0.00 | 42 | 1012.5 |
| 20260501173550 | 58 | 22 | 1.0 | 5.0 | 0.00 | 0.00 | 0.00 | 43 | 1012.6 |
| 20260501173051 | 58 | 146 | 1.0 | 8.0 | 0.00 | 0.00 | 0.00 | 42 | 1012.6 |
| 20260501172550 | 58 | 150 | 0.0 | 12.0 | 0.00 | 0.00 | 0.00 | 43 | 1012.7 |
| 20260501172050 | 57 | 165 | 3.0 | 12.0 | 0.00 | 0.00 | 0.00 | 44 | 1012.8 |
| 20260501171550 | 58 | 159 | 2.0 | 9.0 | 0.00 | 0.00 | 0.00 | 40 | 1012.7 |
| 20260501171051 | 58 | 196 | 4.0 | 8.0 | 0.00 | 0.00 | 0.00 | 45 | 1012.6 |
| 20260501170550 | 57 | 136 | 3.0 | 8.0 | 0.00 | 0.00 | 0.00 | 50 | 1012.7 |
| 20260501170051 | 56 | 140 | 2.0 | 8.0 | 0.00 | 0.00 | 0.00 | 48 | 1012.9 |
| 20260501165550 | 57 | 179 | 3.0 | 7.0 | 0.00 | 0.00 | 0.00 | 45 | 1012.8 |
| 20260501165050 | 57 | 152 | 1.0 | 8.0 | 0.00 | 0.00 | 0.00 | 44 | 1012.9 |
| 20260501164551 | 58 | 158 | 3.0 | 8.0 | 0.00 | 0.00 | 0.00 | 45 | 1013.0 |
| 20260501164050 | 58 | 135 | 2.0 | 6.0 | 0.00 | 0.00 | 0.00 | 47 | 1013.0 |
| 20260501163550 | 57 | 95 | 0.0 | 6.0 | 0.00 | 0.00 | 0.00 | 48 | 1013.0 |
| 20260501163050 | 57 | 110 | 1.0 | 6.0 | 0.00 | 0.00 | 0.00 | 48 | 1012.9 |
| 20260501162611 | 56 | 33 | 2.0 | 6.0 | 0.00 | 0.00 | 0.00 | 50 | 1013.2 |
| 20260501162050 | 57 | 176 | 4.0 | 6.0 | 0.00 | 0.00 | 0.00 | 48 | 1013.3 |
| 20260501161550 | 57 | 97 | 1.0 | 4.0 | 0.00 | 0.00 | 0.00 | 46 | 1013.3 |
| 20260501161050 | 57 | 136 | 2.0 | 7.0 | 0.00 | 0.00 | 0.00 | 49 | 1013.4 |
| 20260501160550 | 56 | 0 | 0.0 | 7.0 | 0.00 | 0.00 | 0.00 | 48 | 1013.3 |
| 20260501160051 | 56 | 153 | 3.0 | 7.0 | 0.00 | 0.00 | 0.00 | 49 | 1013.3 |
| 20260501155550 | 55 | 168 | 2.0 | 7.0 | 0.00 | 0.00 | 0.00 | 55 | 1013.3 |
| 20260501155111 | 55 | 166 | 2.0 | 6.0 | 0.00 | 0.00 | 0.00 | 50 | 1013.4 |